FICHTELBE Weather Reports


Display with metric or nautical units.
time (UTC)temp
F
wind
direction
speed
MPH
gust
MPH
rain 1hr
in
rain 24hr
in
rain mn
in
humidity
%
barometer
mb
20260903231639 54 280 31.0 41.0 0.00 0.00 0.00 93
20260903222041 52 270 30.0 37.0 0.00 0.00 0.00 99
20260903211639 52 270 29.0 36.0 0.00 0.00 0.00 99
20260903201640 52 270 29.0 36.0 0.00 0.00 0.00 99
20260903191840 52 270 33.0 43.0 0.00 0.00 0.00 99
20260903181639 52 270 30.0 37.0 0.00 0.00 0.00 99
20260903171639 52 270 36.0 45.0 0.00 0.00 0.00 99
20260903161939 52 260 37.0 51.0 0.00 0.00 0.00 99
20260903151641 54 270 25.0 33.0 0.00 0.00 0.00 87
20260903141639 57 260 26.0 35.0 0.00 0.00 0.00 71
20260903131840 63 270 25.0 33.0 0.00 0.00 0.00 63
20260903121640 63 270 18.0 28.0 0.00 0.00 0.00 67
20260903111639 57 260 20.0 0.0 0.00 0.00 0.00 71
20260903102040 55 270 23.0 0.0 0.00 0.00 0.00 71
20260903091639 57 260 20.0 26.0 0.00 0.00 0.00 67
20260903081638 52 260 17.0 25.0 0.00 0.00 0.00 81
20260903071840 50 270 17.0 0.0 0.00 0.00 0.00 93
20260903061639 48 260 17.0 0.0 0.00 0.00 0.00 93
20260903051638 46 270 12.0 0.0 0.00 0.00 0.00 99
20260903042041 46 290 12.0 0.0 0.00 0.00 0.00 99
20260903031639 48 290 12.0 0.0 0.00 0.00 0.00 99
20260903021638 48 290 10.0 0.0 0.00 0.00 0.00 99
20260903011839 48 280 12.0 0.0 0.00 0.00 0.00 93
20260903001639 48 280 13.0 0.0 0.00 0.00 0.00 93